sat.trackr.live / text

‹ back to catalog

ONEWEB-0328

NORAD 49197 · 2021-083M

PAYLOAD ACTIVE UNKNOWN

§ Identity

Operator
Country
UK
Launch date
2021-09-14
Launch site
TYMSC
Launch vehicle
Mass (kg)
RCS (m²)

Purposes: comms

External: N2YO · Heavens-Above · Gunter

§ Orbital elements

Epoch: 2026-09-20T01:30:02.273184Z

Period
109.63 min
Inclination
87.8921°
Eccentricity
0.0001774
Mean motion
13.13469495 rev/d
Perigee alt
1,208.4 km
Apogee alt
1,211.1 km
Semi-major
7,587.9 km
B*
-6.9392e-4
RAAN
301.3382°
Arg perigee
97.1897°
Mean anomaly
262.9434°
Rev number
24,335

§ Raw data

ONEWEB-03281 49197U 21083M   26263.06252631 -.00000241  00000+0 -69392-3 0  99982 49197  87.8921 301.3382 0001774  97.1897 262.9434 13.13469495243359

JSON: /api/v1/satellites/49197 · /tle

For live sub-satellite position, see the globe view (requires WebGL).

§ Visibility from observer

Set your observer location to see the next 7 days of passes ≥ 10°. The values pass through the URL so the page stays shareable.

No JS? Fill the form by hand. The geolocation button needs JavaScript.